TimeEST,TemperatureF,Dew PointF,Humidity,Sea Level PressureIn,VisibilityMPH,Wind Direction,Wind SpeedMPH,Gust SpeedMPH,PrecipitationIn,Events,Conditions,WindDirDegrees,DateUTC
12:53 AM,63.0,60.1,90,30.15,10.0,NE,6.9,-,N/A,,Clear,50,2012-12-01 05:53:00
1:53 AM,62.1,60.1,93,30.14,10.0,ENE,4.6,-,N/A,,Clear,60,2012-12-01 06:53:00
2:53 AM,62.1,60.1,93,30.15,10.0,NNE,4.6,-,N/A,,Clear,20,2012-12-01 07:53:00
4:53 AM,63.0,59.0,87,30.14,10.0,NE,4.6,-,N/A,,Clear,40,2012-12-01 09:53:00
5:53 AM,62.1,57.9,86,30.14,10.0,NE,5.8,-,N/A,,Clear,50,2012-12-01 10:53:00
6:53 AM,61.0,57.9,90,30.16,10.0,NNE,5.8,-,N/A,,Clear,30,2012-12-01 11:53:00
7:53 AM,63.0,57.9,84,30.17,10.0,NNE,4.6,-,N/A,,Clear,30,2012-12-01 12:53:00
8:53 AM,66.9,57.9,73,30.19,10.0,NE,9.2,-,N/A,,Clear,40,2012-12-01 13:53:00
9:53 AM,73.0,60.1,64,30.20,10.0,NE,9.2,-,N/A,,Clear,50,2012-12-01 14:53:00
10:53 AM,77.0,61.0,58,30.20,10.0,ENE,15.0,-,N/A,,Clear,60,2012-12-01 15:53:00
11:53 AM,79.0,60.1,52,30.19,10.0,ENE,12.7,-,N/A,,Scattered Clouds,70,2012-12-01 16:53:00
12:53 PM,80.1,59.0,48,30.16,10.0,East,11.5,-,N/A,,Scattered Clouds,90,2012-12-01 17:53:00
1:53 PM,81.0,55.0,41,30.13,10.0,ENE,15.0,20.7,N/A,,Clear,70,2012-12-01 18:53:00
2:53 PM,82.0,57.0,42,30.12,10.0,NE,13.8,19.6,N/A,,Scattered Clouds,40,2012-12-01 19:53:00
3:53 PM,80.1,57.9,47,30.12,10.0,ENE,8.1,-,N/A,,Scattered Clouds,60,2012-12-01 20:53:00
4:53 PM,78.1,61.0,56,30.12,10.0,NE,15.0,21.9,N/A,,Partly Cloudy,50,2012-12-01 21:53:00
5:53 PM,73.0,60.1,64,30.14,10.0,ENE,11.5,-,N/A,,Clear,60,2012-12-01 22:53:00
6:53 PM,71.1,60.1,68,30.16,10.0,NE,9.2,-,N/A,,Clear,50,2012-12-01 23:53:00
7:53 PM,68.0,61.0,78,30.17,10.0,ENE,5.8,-,N/A,,Clear,60,2012-12-02 00:53:00
8:53 PM,66.9,61.0,81,30.18,10.0,NE,5.8,-,N/A,,Clear,50,2012-12-02 01:53:00
9:53 PM,66.0,62.1,87,30.19,10.0,NE,8.1,-,N/A,,Clear,50,2012-12-02 02:53:00
10:53 PM,66.0,62.1,87,30.19,10.0,NE,5.8,-,N/A,,Clear,40,2012-12-02 03:53:00
11:53 PM,64.9,63.0,93,30.19,10.0,NE,8.1,-,N/A,,Clear,50,2012-12-02 04:53:00